Year,Month,Day,Hour,Minute,Value (Times are PST for insolation in W/m^2)
2013,06,16,00,00,0.00
2013,06,16,00,01,0.00
2013,06,16,00,02,0.00
2013,06,16,00,03,0.00
2013,06,16,00,04,0.00
2013,06,16,00,05,0.00
2013,06,16,00,06,0.00
2013,06,16,00,07,0.00
2013,06,16,00,08,0.00
2013,06,16,00,09,0.00
2013,06,16,00,10,0.00
2013,06,16,00,11,0.00
2013,06,16,00,12,0.00
2013,06,16,00,13,0.00
2013,06,16,00,14,0.00
2013,06,16,00,15,0.00
2013,06,16,00,16,0.00
2013,06,16,00,17,0.00
2013,06,16,00,18,0.00
2013,06,16,00,19,0.00
2013,06,16,00,20,0.00
2013,06,16,00,21,0.00
2013,06,16,00,22,0.00
2013,06,16,00,23,0.00
2013,06,16,00,24,0.00
2013,06,16,00,25,0.00
2013,06,16,00,26,0.00
2013,06,16,00,27,0.00
2013,06,16,00,28,0.00
2013,06,16,00,29,0.00
2013,06,16,00,30,0.00
2013,06,16,00,31,0.00
2013,06,16,00,32,0.00
2013,06,16,00,33,0.00
2013,06,16,00,34,0.00
2013,06,16,00,35,0.00
2013,06,16,00,36,0.00
2013,06,16,00,37,0.00
2013,06,16,00,38,0.00
2013,06,16,00,39,0.00
2013,06,16,00,40,0.00
2013,06,16,00,41,0.00
2013,06,16,00,42,0.00
2013,06,16,00,43,0.00
2013,06,16,00,44,0.00
2013,06,16,00,45,0.00
2013,06,16,00,46,0.00
2013,06,16,00,47,0.00
2013,06,16,00,48,0.00
2013,06,16,00,49,0.00
2013,06,16,00,50,0.00
2013,06,16,00,51,0.00
2013,06,16,00,52,0.00
2013,06,16,00,53,0.00
2013,06,16,00,54,0.00
2013,06,16,00,55,0.00
2013,06,16,00,56,0.00
2013,06,16,00,57,0.00
2013,06,16,00,58,0.00
2013,06,16,00,59,0.00
2013,06,16,01,00,0.00
2013,06,16,01,01,0.00
2013,06,16,01,02,0.00
2013,06,16,01,03,0.00
2013,06,16,01,04,0.00
2013,06,16,01,05,0.00
2013,06,16,01,06,0.00
2013,06,16,01,07,0.00
2013,06,16,01,08,0.00
2013,06,16,01,09,0.00
2013,06,16,01,10,0.00
2013,06,16,01,11,0.00
2013,06,16,01,12,0.00
2013,06,16,01,13,0.00
2013,06,16,01,14,0.00
2013,06,16,01,15,0.00
2013,06,16,01,16,0.00
2013,06,16,01,17,0.00
2013,06,16,01,18,0.00
2013,06,16,01,19,0.00
2013,06,16,01,20,0.00
2013,06,16,01,21,0.00
2013,06,16,01,22,0.00
2013,06,16,01,23,0.00
2013,06,16,01,24,0.00
2013,06,16,01,25,0.00
2013,06,16,01,26,0.00
2013,06,16,01,27,0.00
2013,06,16,01,28,0.00
2013,06,16,01,29,0.00
2013,06,16,01,30,0.00
2013,06,16,01,31,0.00
2013,06,16,01,32,0.00
2013,06,16,01,33,0.00
2013,06,16,01,34,0.00
2013,06,16,01,35,0.00
2013,06,16,01,36,0.00
2013,06,16,01,37,0.00
2013,06,16,01,38,0.00
2013,06,16,01,39,0.00
2013,06,16,01,40,0.00
2013,06,16,01,41,0.00
2013,06,16,01,42,0.00
2013,06,16,01,43,0.00
2013,06,16,01,44,0.00
2013,06,16,01,45,0.00
2013,06,16,01,46,0.00
2013,06,16,01,47,0.00
2013,06,16,01,48,0.00
2013,06,16,01,49,0.00
2013,06,16,01,50,0.00
2013,06,16,01,51,0.00
2013,06,16,01,52,0.00
2013,06,16,01,53,0.00
2013,06,16,01,54,0.00
2013,06,16,01,55,0.00
2013,06,16,01,56,0.00
2013,06,16,01,57,0.00
2013,06,16,01,58,0.00
2013,06,16,01,59,0.00
2013,06,16,02,00,0.00
2013,06,16,02,01,0.00
2013,06,16,02,02,0.00
2013,06,16,02,03,0.00
2013,06,16,02,04,0.00
2013,06,16,02,05,0.00
2013,06,16,02,06,0.00
2013,06,16,02,07,0.00
2013,06,16,02,08,0.00
2013,06,16,02,09,0.00
2013,06,16,02,10,0.00
2013,06,16,02,11,0.00
2013,06,16,02,12,0.00
2013,06,16,02,13,0.00
2013,06,16,02,14,0.00
2013,06,16,02,15,0.00
2013,06,16,02,16,0.00
2013,06,16,02,17,0.00
2013,06,16,02,18,0.00
2013,06,16,02,19,0.00
2013,06,16,02,20,0.00
2013,06,16,02,21,0.00
2013,06,16,02,22,0.00
2013,06,16,02,23,0.00
2013,06,16,02,24,0.00
2013,06,16,02,25,0.00
2013,06,16,02,26,0.00
2013,06,16,02,27,0.00
2013,06,16,02,28,0.00
2013,06,16,02,29,0.00
2013,06,16,02,30,0.00
2013,06,16,02,31,0.00
2013,06,16,02,32,0.00
2013,06,16,02,33,0.00
2013,06,16,02,34,0.00
2013,06,16,02,35,0.00
2013,06,16,02,36,0.00
2013,06,16,02,37,0.00
2013,06,16,02,38,0.00
2013,06,16,02,39,0.00
2013,06,16,02,40,0.00
2013,06,16,02,41,0.00
2013,06,16,02,42,0.00
2013,06,16,02,43,0.00
2013,06,16,02,44,0.00
2013,06,16,02,45,0.00
2013,06,16,02,46,0.00
2013,06,16,02,47,0.00
2013,06,16,02,48,0.00
2013,06,16,02,49,0.00
2013,06,16,02,50,0.00
2013,06,16,02,51,0.00
2013,06,16,02,52,0.00
2013,06,16,02,53,0.00
2013,06,16,02,54,0.00
2013,06,16,02,55,0.00
2013,06,16,02,56,0.00
2013,06,16,02,57,0.00
2013,06,16,02,58,0.00
2013,06,16,02,59,0.00
2013,06,16,03,00,0.00
2013,06,16,03,01,0.00
2013,06,16,03,02,0.00
2013,06,16,03,03,0.00
2013,06,16,03,06,0.00
2013,06,16,03,07,0.00
2013,06,16,03,08,0.00
2013,06,16,03,09,0.00
2013,06,16,03,10,0.00
2013,06,16,03,11,0.00
2013,06,16,03,12,0.00
2013,06,16,03,13,0.00
2013,06,16,03,14,0.00
2013,06,16,03,15,0.00
2013,06,16,03,16,0.00
2013,06,16,03,17,0.00
2013,06,16,03,18,0.00
2013,06,16,03,19,0.00
2013,06,16,03,20,0.00
2013,06,16,03,21,0.00
2013,06,16,03,22,0.00
2013,06,16,03,23,0.00
2013,06,16,03,24,0.00
2013,06,16,03,25,0.00
2013,06,16,03,26,0.00
2013,06,16,03,27,0.00
2013,06,16,03,28,0.00
2013,06,16,03,29,0.00
2013,06,16,03,30,0.00
2013,06,16,03,31,0.00
2013,06,16,03,32,0.00
2013,06,16,03,33,0.00
2013,06,16,03,34,0.00
2013,06,16,03,35,0.00
2013,06,16,03,36,0.00
2013,06,16,03,37,0.00
2013,06,16,03,38,0.00
2013,06,16,03,39,0.00
2013,06,16,03,40,0.00
2013,06,16,03,41,0.00
2013,06,16,03,42,0.00
2013,06,16,03,43,0.00
2013,06,16,03,44,0.00
2013,06,16,03,45,0.00
2013,06,16,03,46,0.00
2013,06,16,03,47,0.00
2013,06,16,03,48,0.00
2013,06,16,03,49,0.00
2013,06,16,03,50,0.00
2013,06,16,03,51,0.00
2013,06,16,03,52,0.00
2013,06,16,03,53,0.00
2013,06,16,03,54,0.00
2013,06,16,03,55,0.00
2013,06,16,03,56,0.00
2013,06,16,03,57,0.00
2013,06,16,03,58,0.00
2013,06,16,03,59,0.00
2013,06,16,04,00,0.00
2013,06,16,04,01,0.00
2013,06,16,04,02,0.00
2013,06,16,04,03,0.00
2013,06,16,04,04,0.00
2013,06,16,04,05,0.00
2013,06,16,04,06,0.00
2013,06,16,04,07,0.00
2013,06,16,04,08,0.00
2013,06,16,04,09,0.00
2013,06,16,04,10,0.00
2013,06,16,04,11,0.00
2013,06,16,04,12,0.00
2013,06,16,04,13,0.00
2013,06,16,04,14,0.00
2013,06,16,04,15,0.00
2013,06,16,04,16,0.00
2013,06,16,04,17,0.00
2013,06,16,04,18,0.00
2013,06,16,04,19,0.00
2013,06,16,04,20,0.00
2013,06,16,04,21,0.00
2013,06,16,04,22,0.00
2013,06,16,04,23,0.00
2013,06,16,04,24,0.00
2013,06,16,04,25,0.00
2013,06,16,04,26,0.00
2013,06,16,04,27,0.00
2013,06,16,04,28,0.00
2013,06,16,04,29,0.00
2013,06,16,04,30,0.00
2013,06,16,04,31,0.00
2013,06,16,04,32,0.00
2013,06,16,04,33,0.00
2013,06,16,04,34,0.00
2013,06,16,04,35,0.00
2013,06,16,04,36,0.00
2013,06,16,04,37,0.00
2013,06,16,04,38,0.00
2013,06,16,04,39,0.00
2013,06,16,04,40,0.00
2013,06,16,04,41,0.00
2013,06,16,04,42,0.00
2013,06,16,04,43,0.00
2013,06,16,04,44,0.00
2013,06,16,04,45,0.00
2013,06,16,04,46,0.00
2013,06,16,04,47,0.00
2013,06,16,04,48,0.00
2013,06,16,04,49,0.00
2013,06,16,04,50,0.00
2013,06,16,04,51,0.00
2013,06,16,04,52,0.00
2013,06,16,04,53,0.00
2013,06,16,04,54,0.00
2013,06,16,04,55,0.00
2013,06,16,04,56,0.00
2013,06,16,04,57,0.00
2013,06,16,04,58,0.00
2013,06,16,04,59,0.00
2013,06,16,05,00,0.00
2013,06,16,05,01,0.00
2013,06,16,05,02,0.00
2013,06,16,05,03,0.00
2013,06,16,05,04,0.00
2013,06,16,05,05,0.00
2013,06,16,05,06,0.00
2013,06,16,05,07,0.00
2013,06,16,05,08,0.00
2013,06,16,05,09,0.00
2013,06,16,05,10,0.00
2013,06,16,05,11,0.00
2013,06,16,05,12,0.00
2013,06,16,05,13,0.00
2013,06,16,05,14,0.50
2013,06,16,05,15,5.00
2013,06,16,05,16,5.00
2013,06,16,05,17,5.00
2013,06,16,05,18,5.00
2013,06,16,05,19,5.00
2013,06,16,05,20,6.20
2013,06,16,05,21,7.00
2013,06,16,05,22,7.00
2013,06,16,05,23,7.00
2013,06,16,05,24,7.00
2013,06,16,05,25,9.00
2013,06,16,05,26,9.00
2013,06,16,05,27,9.00
2013,06,16,05,28,9.00
2013,06,16,05,29,9.90
2013,06,16,05,30,11.00
2013,06,16,05,31,11.00
2013,06,16,05,32,11.70
2013,06,16,05,33,12.00
2013,06,16,05,34,12.00
2013,06,16,05,35,12.00
2013,06,16,05,36,12.20
2013,06,16,05,37,14.00
2013,06,16,05,38,14.00
2013,06,16,05,39,14.00
2013,06,16,05,40,14.90
2013,06,16,05,41,16.00
2013,06,16,05,42,16.00
2013,06,16,05,43,16.00
2013,06,16,05,44,17.50
2013,06,16,05,45,18.00
2013,06,16,05,46,18.00
2013,06,16,05,47,18.00
2013,06,16,05,48,18.00
2013,06,16,05,49,18.00
2013,06,16,05,50,18.00
2013,06,16,05,51,18.00
2013,06,16,05,52,18.00
2013,06,16,05,53,18.00
2013,06,16,05,54,18.00
2013,06,16,05,55,18.80
2013,06,16,05,56,19.00
2013,06,16,05,57,19.10
2013,06,16,05,58,21.00
2013,06,16,05,59,21.40
2013,06,16,06,00,23.00
2013,06,16,06,01,23.00
2013,06,16,06,02,23.90
2013,06,16,06,03,25.50
2013,06,16,06,04,26.00
2013,06,16,06,05,26.00
2013,06,16,06,06,26.00
2013,06,16,06,07,27.70
2013,06,16,06,08,29.90
2013,06,16,06,09,30.20
2013,06,16,06,10,31.60
2013,06,16,06,11,30.50
2013,06,16,06,12,32.00
2013,06,16,06,13,31.10
2013,06,16,06,14,28.90
2013,06,16,06,15,28.00
2013,06,16,06,16,29.40
2013,06,16,06,17,28.50
2013,06,16,06,18,28.00
2013,06,16,06,19,29.90
2013,06,16,06,20,30.20
2013,06,16,06,21,31.60
2013,06,16,06,22,30.00
2013,06,16,06,23,30.00
2013,06,16,06,24,30.00
2013,06,16,06,25,30.00
2013,06,16,06,26,30.00
2013,06,16,06,27,31.40
2013,06,16,06,28,32.80
2013,06,16,06,29,34.70
2013,06,16,06,30,35.00
2013,06,16,06,31,37.00
2013,06,16,06,32,36.60
2013,06,16,06,33,35.00
2013,06,16,06,34,35.00
2013,06,16,06,35,35.90
2013,06,16,06,36,38.10
2013,06,16,06,37,39.60
2013,06,16,06,38,40.00
2013,06,16,06,39,39.20
2013,06,16,06,40,39.00
2013,06,16,06,41,38.90
2013,06,16,06,42,36.80
2013,06,16,06,43,35.40
2013,06,16,06,44,36.50
2013,06,16,06,45,35.00
2013,06,16,06,46,35.00
2013,06,16,06,47,34.00
2013,06,16,06,48,34.30
2013,06,16,06,49,35.00
2013,06,16,06,50,35.00
2013,06,16,06,51,36.70
2013,06,16,06,52,37.10
2013,06,16,06,53,39.00
2013,06,16,06,54,39.20
2013,06,16,06,55,40.00
2013,06,16,06,56,40.70
2013,06,16,06,57,42.00
2013,06,16,06,58,43.00
2013,06,16,06,59,44.00
2013,06,16,07,00,46.10
2013,06,16,07,01,54.10
2013,06,16,07,02,62.00
2013,06,16,07,03,64.60
2013,06,16,07,04,58.00
2013,06,16,07,05,58.40
2013,06,16,07,06,60.90
2013,06,16,07,07,63.60
2013,06,16,07,08,65.80
2013,06,16,07,09,68.00
2013,06,16,07,10,69.60
2013,06,16,07,11,70.00
2013,06,16,07,12,70.00
2013,06,16,07,13,70.00
2013,06,16,07,14,70.00
2013,06,16,07,15,70.00
2013,06,16,07,16,70.80
2013,06,16,07,17,74.00
2013,06,16,07,18,74.00
2013,06,16,07,19,74.00
2013,06,16,07,20,75.10
2013,06,16,07,21,76.60
2013,06,16,07,22,78.40
2013,06,16,07,23,80.50
2013,06,16,07,24,83.60
2013,06,16,07,25,86.00
2013,06,16,07,26,88.00
2013,06,16,07,27,88.40
2013,06,16,07,28,90.80
2013,06,16,07,29,98.60
2013,06,16,07,30,115.30
2013,06,16,07,31,116.70
2013,06,16,07,32,106.80
2013,06,16,07,33,113.80
2013,06,16,07,34,114.20
2013,06,16,07,35,99.40
2013,06,16,07,36,91.30
2013,06,16,07,37,92.40
2013,06,16,07,38,116.50
2013,06,16,07,39,178.00
2013,06,16,07,40,217.80
2013,06,16,07,41,302.60
2013,06,16,07,42,304.50
2013,06,16,07,43,309.80
2013,06,16,07,44,314.50
2013,06,16,07,45,307.00
2013,06,16,07,46,278.50
2013,06,16,07,47,280.60
2013,06,16,07,48,235.40
2013,06,16,07,49,254.60
2013,06,16,07,50,270.50
2013,06,16,07,51,221.10
2013,06,16,07,52,176.80
2013,06,16,07,53,149.80
2013,06,16,07,54,136.60
2013,06,16,07,55,152.10
2013,06,16,07,56,100.80
2013,06,16,07,57,83.60
2013,06,16,07,58,94.40
2013,06,16,07,59,118.30
2013,06,16,08,00,130.60
2013,06,16,08,01,114.70
2013,06,16,08,02,135.40
2013,06,16,08,03,100.00
2013,06,16,08,04,100.00
2013,06,16,08,05,102.40
2013,06,16,08,06,104.00
2013,06,16,08,07,97.20
2013,06,16,08,08,96.70
2013,06,16,08,09,188.20
2013,06,16,08,10,109.00
2013,06,16,08,11,137.80
2013,06,16,08,12,232.60
2013,06,16,08,13,170.50
2013,06,16,08,14,139.00
2013,06,16,08,15,226.00
2013,06,16,08,16,313.00
2013,06,16,08,17,313.00
2013,06,16,08,18,179.40
2013,06,16,08,19,132.40
2013,06,16,08,20,130.00
2013,06,16,08,21,415.60
2013,06,16,08,22,395.20
2013,06,16,08,23,350.20
2013,06,16,08,24,304.40
2013,06,16,08,25,319.20
2013,06,16,08,26,366.50
2013,06,16,08,27,374.80
2013,06,16,08,28,396.80
2013,06,16,08,29,414.30
2013,06,16,08,30,417.00
2013,06,16,08,31,417.00
2013,06,16,08,32,167.90
2013,06,16,08,33,178.80
2013,06,16,08,34,191.20
2013,06,16,08,35,226.50
2013,06,16,08,36,260.20
2013,06,16,08,37,237.00
2013,06,16,08,38,227.20
2013,06,16,08,39,244.60
2013,06,16,08,40,243.20
2013,06,16,08,41,285.30
2013,06,16,08,42,270.10
2013,06,16,08,43,278.50
2013,06,16,08,44,273.60
2013,06,16,08,45,276.00
2013,06,16,08,46,302.40
2013,06,16,08,47,329.00
2013,06,16,08,48,340.50
2013,06,16,08,49,365.20
2013,06,16,08,50,357.60
2013,06,16,08,51,378.50
2013,06,16,08,52,375.40
2013,06,16,08,53,360.30
2013,06,16,08,54,361.30
2013,06,16,08,55,406.60
2013,06,16,08,56,421.40
2013,06,16,08,57,420.00
2013,06,16,08,58,360.60
2013,06,16,08,59,276.50
2013,06,16,09,00,266.20
2013,06,16,09,01,270.20
2013,06,16,09,02,275.00
2013,06,16,09,03,327.00
2013,06,16,09,04,300.10
2013,06,16,09,05,248.30
2013,06,16,09,06,251.90
2013,06,16,09,07,266.50
2013,06,16,09,08,285.90
2013,06,16,09,09,269.00
2013,06,16,09,10,272.50
2013,06,16,09,11,301.20
2013,06,16,09,12,318.00
2013,06,16,09,13,318.00
2013,06,16,09,14,469.30
2013,06,16,09,15,448.50
2013,06,16,09,16,438.10
2013,06,16,09,17,497.90
2013,06,16,09,18,429.10
2013,06,16,09,19,373.00
2013,06,16,09,20,308.80
2013,06,16,09,21,318.10
2013,06,16,09,22,298.70
2013,06,16,09,23,272.50
2013,06,16,09,24,283.60
2013,06,16,09,25,287.00
2013,06,16,09,26,323.00
2013,06,16,09,27,353.30
2013,06,16,09,28,341.40
2013,06,16,09,29,362.90
2013,06,16,09,30,365.50
2013,06,16,09,31,338.00
2013,06,16,09,32,361.10
2013,06,16,09,33,349.50
2013,06,16,09,34,363.80
2013,06,16,09,35,325.00
2013,06,16,09,36,364.10
2013,06,16,09,37,374.00
2013,06,16,09,38,504.80
2013,06,16,09,39,559.20
2013,06,16,09,40,502.10
2013,06,16,09,41,519.00
2013,06,16,09,42,534.20
2013,06,16,09,43,555.00
2013,06,16,09,44,555.00
2013,06,16,09,45,555.00
2013,06,16,09,46,555.00
2013,06,16,09,47,555.00
2013,06,16,09,48,517.20
2013,06,16,09,49,513.00
2013,06,16,09,50,513.00
2013,06,16,09,51,513.00
2013,06,16,09,52,513.00
2013,06,16,09,53,487.00
2013,06,16,09,54,448.00
2013,06,16,09,55,570.90
2013,06,16,09,56,663.00
2013,06,16,09,57,663.00
2013,06,16,09,58,634.40
2013,06,16,09,59,628.10
2013,06,16,10,00,647.00
2013,06,16,10,01,647.00
2013,06,16,10,02,563.60
2013,06,16,10,03,330.00
2013,06,16,10,04,416.00
2013,06,16,10,05,545.00
2013,06,16,10,06,496.40
2013,06,16,10,07,523.40
2013,06,16,10,08,491.50
2013,06,16,10,09,471.00
2013,06,16,10,10,471.00
2013,06,16,10,11,624.00
2013,06,16,10,12,624.00
2013,06,16,10,13,673.80
2013,06,16,10,14,833.00
2013,06,16,10,15,833.00
2013,06,16,10,16,700.50
2013,06,16,10,17,508.00
2013,06,16,10,18,468.00
2013,06,16,10,19,383.20
2013,06,16,10,20,337.10
2013,06,16,10,21,296.20
2013,06,16,10,22,292.00
2013,06,16,10,23,324.70
2013,06,16,10,24,499.00
2013,06,16,10,25,506.70
2013,06,16,10,26,484.60
2013,06,16,10,27,389.00
2013,06,16,10,28,339.00
2013,06,16,10,29,356.50
2013,06,16,10,30,364.00
2013,06,16,10,31,364.00
2013,06,16,10,32,407.70
2013,06,16,10,33,439.50
2013,06,16,10,34,709.10
2013,06,16,10,35,755.20
2013,06,16,10,36,810.00
2013,06,16,10,37,768.00
2013,06,16,10,38,768.00
2013,06,16,10,39,666.60
2013,06,16,10,40,589.20
2013,06,16,10,41,659.20
2013,06,16,10,42,679.00
2013,06,16,10,43,679.00
2013,06,16,10,44,679.00
2013,06,16,10,45,704.70
2013,06,16,10,46,813.50
2013,06,16,10,47,814.10
2013,06,16,10,48,798.60
2013,06,16,10,49,750.50
2013,06,16,10,50,738.10
2013,06,16,10,51,693.70
2013,06,16,10,52,646.00
2013,06,16,10,53,718.00
2013,06,16,10,54,820.80
2013,06,16,10,55,830.10
2013,06,16,10,56,828.30
2013,06,16,10,57,818.00
2013,06,16,10,58,824.00
2013,06,16,10,59,810.80
2013,06,16,11,00,830.60
2013,06,16,11,01,838.80
2013,06,16,11,02,821.50
2013,06,16,11,03,767.00
2013,06,16,11,04,768.20
2013,06,16,11,05,803.30
2013,06,16,11,06,814.20
2013,06,16,11,07,819.50
2013,06,16,11,08,828.90
2013,06,16,11,09,827.40
2013,06,16,11,10,838.00
2013,06,16,11,11,847.50
2013,06,16,11,12,842.70
2013,06,16,11,13,859.50
2013,06,16,11,14,873.00
2013,06,16,11,15,887.60
2013,06,16,11,16,891.00
2013,06,16,11,17,891.00
2013,06,16,11,18,891.00
2013,06,16,11,19,891.00
2013,06,16,11,20,891.00
2013,06,16,11,21,903.30
2013,06,16,11,22,895.30
2013,06,16,11,23,872.00
2013,06,16,11,24,872.00
2013,06,16,11,25,872.00
2013,06,16,11,26,872.00
2013,06,16,11,27,872.00
2013,06,16,11,28,872.00
2013,06,16,11,29,780.80
2013,06,16,11,30,263.50
2013,06,16,11,31,264.70
2013,06,16,11,32,282.20
2013,06,16,11,33,329.50
2013,06,16,11,34,328.10
2013,06,16,11,35,292.20
2013,06,16,11,36,285.50
2013,06,16,11,37,285.00
2013,06,16,11,38,283.20
2013,06,16,11,39,282.90
2013,06,16,11,40,281.80
2013,06,16,11,41,287.40
2013,06,16,11,42,302.40
2013,06,16,11,43,342.80
2013,06,16,11,44,359.00
2013,06,16,11,45,342.40
2013,06,16,11,46,346.00
2013,06,16,11,47,403.00
2013,06,16,11,48,422.00
2013,06,16,11,49,672.20
2013,06,16,11,50,700.00
2013,06,16,11,51,658.70
2013,06,16,11,52,467.50
2013,06,16,11,53,432.40
2013,06,16,11,54,471.60
2013,06,16,11,55,501.00
2013,06,16,11,56,501.00
2013,06,16,11,57,501.00
2013,06,16,11,58,501.00
2013,06,16,11,59,501.00
2013,06,16,12,00,501.00
2013,06,16,12,01,531.20
2013,06,16,12,02,803.00
2013,06,16,12,03,721.20
2013,06,16,12,04,485.00
2013,06,16,12,05,506.00
2013,06,16,12,06,506.00
2013,06,16,12,07,506.00
2013,06,16,12,08,506.00
2013,06,16,12,09,506.00
2013,06,16,12,10,506.00
2013,06,16,12,11,856.10
2013,06,16,12,12,887.80
2013,06,16,12,13,751.00
2013,06,16,12,14,777.20
2013,06,16,12,15,856.00
2013,06,16,12,16,856.00
2013,06,16,12,17,810.80
2013,06,16,12,18,803.80
2013,06,16,12,19,871.40
2013,06,16,12,20,884.20
2013,06,16,12,21,830.00
2013,06,16,12,22,779.20
2013,06,16,12,23,765.80
2013,06,16,12,24,790.00
2013,06,16,12,25,769.00
2013,06,16,12,26,734.20
2013,06,16,12,27,789.60
2013,06,16,12,28,837.00
2013,06,16,12,29,837.00
2013,06,16,12,30,846.10
2013,06,16,12,31,795.50
2013,06,16,12,32,775.30
2013,06,16,12,33,735.40
2013,06,16,12,34,769.50
2013,06,16,12,35,786.80
2013,06,16,12,36,817.40
2013,06,16,12,37,873.00
2013,06,16,12,38,890.10
2013,06,16,12,39,931.00
2013,06,16,12,40,956.80
2013,06,16,12,41,979.70
2013,06,16,12,42,936.00
2013,06,16,12,43,905.80
2013,06,16,12,44,931.70
2013,06,16,12,45,936.20
2013,06,16,12,46,991.70
2013,06,16,12,47,970.40
2013,06,16,12,48,963.40
2013,06,16,12,49,976.00
2013,06,16,12,50,938.00
2013,06,16,12,51,946.20
2013,06,16,12,52,986.60
2013,06,16,12,53,994.80
2013,06,16,12,54,1011.50
2013,06,16,12,55,994.10
2013,06,16,12,56,1019.10
2013,06,16,12,57,1017.80
2013,06,16,12,58,1028.00
2013,06,16,12,59,981.20
2013,06,16,13,00,869.20
2013,06,16,13,01,842.00
2013,06,16,13,02,819.00
2013,06,16,13,03,819.00
2013,06,16,13,04,819.00
2013,06,16,13,05,819.00
2013,06,16,13,06,819.00
2013,06,16,13,07,823.30
2013,06,16,13,08,896.60
2013,06,16,13,09,849.00
2013,06,16,13,10,849.00
2013,06,16,13,11,849.00
2013,06,16,13,12,849.00
2013,06,16,13,13,849.00
2013,06,16,13,14,849.00
2013,06,16,13,15,849.00
2013,06,16,13,16,849.00
2013,06,16,13,17,771.60
2013,06,16,13,18,779.40
2013,06,16,13,19,863.00
2013,06,16,13,20,863.00
2013,06,16,13,21,762.20
2013,06,16,13,22,512.20
2013,06,16,13,23,492.00
2013,06,16,13,24,466.00
2013,06,16,13,25,500.20
2013,06,16,13,26,531.00
2013,06,16,13,27,531.00
2013,06,16,13,28,828.00
2013,06,16,13,29,825.60
2013,06,16,13,30,912.00
2013,06,16,13,31,854.40
2013,06,16,13,32,693.00
2013,06,16,13,33,757.40
2013,06,16,13,34,840.00
2013,06,16,13,35,828.20
2013,06,16,13,36,818.30
2013,06,16,13,37,859.20
2013,06,16,13,38,863.80
2013,06,16,13,39,867.30
2013,06,16,13,40,821.80
2013,06,16,13,41,788.70
2013,06,16,13,42,817.40
2013,06,16,13,43,847.50
2013,06,16,13,44,886.00
2013,06,16,13,45,882.50
2013,06,16,13,46,882.80
2013,06,16,13,47,892.50
2013,06,16,13,48,902.00
2013,06,16,13,49,904.00
2013,06,16,13,50,877.90
2013,06,16,13,51,903.70
2013,06,16,13,52,892.00
2013,06,16,13,53,876.10
2013,06,16,13,54,955.40
2013,06,16,13,55,993.00
2013,06,16,13,56,1012.60
2013,06,16,13,57,1016.60
2013,06,16,13,58,1013.00
2013,06,16,13,59,1016.60
2013,06,16,14,00,1006.50
2013,06,16,14,01,995.90
2013,06,16,14,02,1010.10
2013,06,16,14,03,1002.60
2013,06,16,14,04,962.00
2013,06,16,14,05,962.00
2013,06,16,14,06,899.70
2013,06,16,14,07,785.00
2013,06,16,14,08,828.00
2013,06,16,14,09,842.30
2013,06,16,14,10,835.00
2013,06,16,14,11,954.80
2013,06,16,14,12,1021.90
2013,06,16,14,13,1023.00
2013,06,16,14,14,1023.00
2013,06,16,14,15,1023.00
2013,06,16,14,16,1023.00
2013,06,16,14,17,962.60
2013,06,16,14,18,829.00
2013,06,16,14,19,769.80
2013,06,16,14,20,781.10
2013,06,16,14,21,805.00
2013,06,16,14,22,755.40
2013,06,16,14,23,771.70
2013,06,16,14,24,862.10
2013,06,16,14,25,812.60
2013,06,16,14,26,833.00
2013,06,16,14,27,788.90
2013,06,16,14,28,693.40
2013,06,16,14,29,696.00
2013,06,16,14,30,696.40
2013,06,16,14,31,680.00
2013,06,16,14,32,761.00
2013,06,16,14,33,712.80
2013,06,16,14,34,729.10
2013,06,16,14,35,636.00
2013,06,16,14,36,636.00
2013,06,16,14,37,642.20
2013,06,16,14,38,636.10
2013,06,16,14,39,595.20
2013,06,16,14,40,668.00
2013,06,16,14,41,727.70
2013,06,16,14,42,741.90
2013,06,16,14,43,774.00
2013,06,16,14,44,784.00
2013,06,16,14,45,812.80
2013,06,16,14,46,795.70
2013,06,16,14,47,601.20
2013,06,16,14,48,524.80
2013,06,16,14,49,493.40
2013,06,16,14,50,513.00
2013,06,16,14,51,513.00
2013,06,16,14,52,513.00
2013,06,16,14,53,764.50
2013,06,16,14,54,964.50
2013,06,16,14,55,901.00
2013,06,16,14,56,886.00
2013,06,16,14,57,886.00
2013,06,16,14,58,819.00
2013,06,16,14,59,439.00
2013,06,16,15,00,439.00
2013,06,16,15,01,439.00
2013,06,16,15,02,439.00
2013,06,16,15,03,485.80
2013,06,16,15,04,524.00
2013,06,16,15,05,524.00
2013,06,16,15,06,468.80
2013,06,16,15,07,537.70
2013,06,16,15,08,569.30
2013,06,16,15,09,993.00
2013,06,16,15,10,993.00
2013,06,16,15,11,890.50
2013,06,16,15,12,700.00
2013,06,16,15,13,700.00
2013,06,16,15,14,558.50
2013,06,16,15,15,430.60
2013,06,16,15,16,439.00
2013,06,16,15,17,299.80
2013,06,16,15,18,258.20
2013,06,16,15,19,257.40
2013,06,16,15,20,269.60
2013,06,16,15,21,305.00
2013,06,16,15,22,329.00
2013,06,16,15,23,329.00
2013,06,16,15,24,329.00
2013,06,16,15,25,329.00
2013,06,16,15,26,329.00
2013,06,16,15,27,869.00
2013,06,16,15,28,1069.70
2013,06,16,15,29,1031.90
2013,06,16,15,30,1014.00
2013,06,16,15,31,977.20
2013,06,16,15,32,664.00
2013,06,16,15,33,753.10
2013,06,16,15,34,941.80
2013,06,16,15,35,923.50
2013,06,16,15,36,912.00
2013,06,16,15,37,786.50
2013,06,16,15,38,657.10
2013,06,16,15,39,587.00
2013,06,16,15,40,575.00
2013,06,16,15,41,496.10
2013,06,16,15,42,505.80
2013,06,16,15,43,592.80
2013,06,16,15,44,619.60
2013,06,16,15,45,621.00
2013,06,16,15,46,679.30
2013,06,16,15,47,741.80
2013,06,16,15,48,725.00
2013,06,16,15,49,704.20
2013,06,16,15,50,664.80
2013,06,16,15,51,616.60
2013,06,16,15,52,623.80
2013,06,16,15,53,557.10
2013,06,16,15,54,514.20
2013,06,16,15,55,466.10
2013,06,16,15,56,517.20
2013,06,16,15,57,548.00
2013,06,16,15,58,527.80
2013,06,16,15,59,552.10
2013,06,16,16,00,499.00
2013,06,16,16,01,469.50
2013,06,16,16,02,478.20
2013,06,16,16,03,415.30
2013,06,16,16,04,353.30
2013,06,16,16,05,319.40
2013,06,16,16,06,312.30
2013,06,16,16,07,308.10
2013,06,16,16,08,298.00
2013,06,16,16,09,296.20
2013,06,16,16,10,290.20
2013,06,16,16,11,281.00
2013,06,16,16,12,270.80
2013,06,16,16,13,265.60
2013,06,16,16,14,269.30
2013,06,16,16,15,279.90
2013,06,16,16,16,286.10
2013,06,16,16,17,291.50
2013,06,16,16,18,302.40
2013,06,16,16,19,332.60
2013,06,16,16,20,345.30
2013,06,16,16,21,335.90
2013,06,16,16,22,340.80
2013,06,16,16,23,357.30
2013,06,16,16,24,406.80
2013,06,16,16,25,451.30
2013,06,16,16,26,416.70
2013,06,16,16,27,415.50
2013,06,16,16,28,411.40
2013,06,16,16,29,392.50
2013,06,16,16,30,370.80
2013,06,16,16,31,363.10
2013,06,16,16,32,356.20
2013,06,16,16,33,352.00
2013,06,16,16,34,336.80
2013,06,16,16,35,334.00
2013,06,16,16,36,336.00
2013,06,16,16,37,337.20
2013,06,16,16,38,331.90
2013,06,16,16,39,338.90
2013,06,16,16,40,341.00
2013,06,16,16,41,341.00
2013,06,16,16,42,333.00
2013,06,16,16,43,334.40
2013,06,16,16,44,333.80
2013,06,16,16,45,332.00
2013,06,16,16,46,356.30
2013,06,16,16,47,381.00
2013,06,16,16,48,409.50
2013,06,16,16,49,483.80
2013,06,16,16,50,545.00
2013,06,16,16,51,526.20
2013,06,16,16,52,511.60
2013,06,16,16,53,533.80
2013,06,16,16,54,518.60
2013,06,16,16,55,512.20
2013,06,16,16,56,465.00
2013,06,16,16,57,430.60
2013,06,16,16,58,372.80
2013,06,16,16,59,351.10
2013,06,16,17,00,336.60
2013,06,16,17,01,315.10
2013,06,16,17,02,306.40
2013,06,16,17,03,291.30
2013,06,16,17,04,289.10
2013,06,16,17,05,288.20
2013,06,16,17,06,284.20
2013,06,16,17,07,292.60
2013,06,16,17,08,292.50
2013,06,16,17,09,298.60